Location: Bucksport
(44.6167°N, 68.8000°W)
Time: 21:16:41
(UTC-05:00)

N. Korean satellite - Pass Details

Date: 24 October 2019
Orbit: 456 x 506 km, 97.2° (Epoch: 21 November)

Event Time Altitude Azimuth Distance (km) Brightness Sun altitude
Rises 05:22:55 0° 34° (NNE) 2,577 10.8 -18.2°
Reaches altitude 10° 05:26:07 10° 65° (ENE) 1,699 10.3 -17.7°
Maximum altitude 05:27:42 12° 90° (E) 1,557 10.4 -17.4°
Drops below altitude 10° 05:29:16 10° 116° (ESE) 1,702 10.3 -17.1°
Sets 05:32:28 0° 147° (SSE) 2,587 10.7 -16.5°
